Regional Weather Roundup
Issued by NWS

Home | Current Version | Previous Version | Graphics & Text | Print | Product List | Glossary On
Versions: 1 2 3 4 5 6 7 8 9 10 11 12 13 14 15 16 17 18 19 20 21 22 23 24 25 26 27 28 29 30 31 32 33 34 35 36 37 38 39 40 41 42 43 44 45 46 47 48 49 50
000
ASUS43 KDMX 301408
RWRIA

WEATHER ROUNDUP FOR IOWA
NATIONAL WEATHER SERVICE DES MOINES IA
900 AM CDT SAT APR 30 2016

NOTE: "FAIR" INDICATES FEW OR NO CLOUDS BELOW 12,000 FEET WITH NO
SIGNIFICANT WEATHER AND/OR OBSTRUCTIONS TO VISIBILITY.

* - THESE STATIONS ARE NOT NWS STATIONS...THUS NOT UNDER NWS
QUALITY CONTROL.  THEY ALSO DO NOT REPORT WEATHER SUCH
AS PRECIPITATION OR FOG.

IAZ001>003-012>014-020>022-031>034-043>046-301500-
   NORTHWEST IOWA

CITY           SKY/WX    TMP DP  RH WIND       PRES   REMARKS
CARROLL *      RAIN      43  43 100 E18       29.82S
CHEROKEE *     RAIN      43  43 100 E16G26    29.84R
DENISON *      HVY RAIN  43  43 100 E23G37    29.74F
LE MARS *      RAIN      45  41  87 NE20G32   29.85R
ORANGE CITY *  LGT RAIN  43  39  87 E20G29    29.85R
SHELDON *      RAIN      43  41  93 NE30G38   29.84F
SIOUX CITY     HVY RAIN  45  41  86 E7        29.83R FOG
SPENCER        LGT RAIN  43  38  82 NE23G30   29.88F
STORM LAKE *   LGT RAIN  41  41 100 E28G35    29.84R
$$

IAZ055>058-069>071-079>083-090>094-301500-
   SOUTHWEST IOWA

CITY           SKY/WX    TMP DP  RH WIND       PRES   REMARKS
ATLANTIC *     LGT RAIN  45  45 100 E18G31    29.72F
AUDUBON *      RAIN      43  41  93 E18       29.79F
CLARINDA *       N/A    N/A N/A N/A MISG        N/A
COUNCIL BLFS * LGT RAIN  45  45 100 E10G20    29.73R
CRESTON *      LGT RAIN  46  45  93 E7G20     29.77R
HARLAN  *      MIX PCPN  45  43  93 E22       29.76F
LAMONI         LGT RAIN  47  46  97 E9        29.72F FOG
RED OAK *      CLOUDY    48  45  87 E17G26    29.70R
SHENANDOAH *   LGT RAIN  48  48 100 E12G21    29.70S
$$

IAZ047>049-059>061-072>074-084-301500-
   CENTRAL IOWA

CITY           SKY/WX    TMP DP  RH WIND       PRES   REMARKS
AMES           LGT RAIN  44  44 100 E14G24    29.83S FOG
ANKENY *       LGT RAIN  45  45 100 E13       29.81F
BOONE *        CLOUDY    43  43 100 E23       29.81S FOG
CHARITON *     CLOUDY    46  46 100 E16G22    29.77F FOG
DES MOINES     RAIN      46  43  89 E14G23    29.79F FOG
GRINNELL*      LGT RAIN  45  43  93 E18G25    29.84S
KNOXVILLE *    LGT RAIN  46  45  93 E10G18    29.79F
MARSHALLTOWN   LGT RAIN  44  42  93 E23       29.85F FOG
NEWTON *       CLOUDY    45  45 100 E22G28    29.82S FOG
PELLA *        RAIN      46  45  93 E12G20    29.82F
$$

IAZ004>006-015-016-023>025-035-036-301500-
   NORTH CENTRAL IOWA

CITY           SKY/WX    TMP DP  RH WIND       PRES   REMARKS
ALGONA *       DRIZZLE   43  41  93 E18G24    29.91S
CLARION *      LGT RAIN  43  43 100 E22G33    29.87S
ESTHERVILLE    CLOUDY    42  39  89 E23G30    29.92F
FORT DODGE *   CLOUDY    43  37  81 E21G29    29.85S
MASON CITY     CLOUDY    43  41  93 E18G26    29.94F
FOREST CITY *  RAIN      43  39  87 E16G23    29.92F
WEBSTER CITY * CLOUDY    45  43  93 E28       29.83S FOG
IOWA FALLS *   DRIZZLE   45  41  87 E24G30    29.87F
$$

IAZ007>011-017>019-026>030-037>042-050>054-066-301500-
   NORTHEAST IOWA

CITY           SKY/WX    TMP DP  RH WIND       PRES   REMARKS
CEDAR RAPIDS   CLOUDY    46  45  96 E20G28    29.87F FOG
CHARLES CITY * MIX PCPN  45  45 100 E20       29.95S
CLINTON *      CLOUDY    47  44  90 E21       29.93F
DECORAH *      CLOUDY    45  41  87 E16       29.99R
DUBUQUE        CLOUDY    45  40  82 E14       29.96F
MONTICELLO *   CLOUDY    46  43  87 E13G23    29.91F
OELWEIN *      LGT RAIN  45  43  93 E16G25    29.94F
WATERLOO       LGT RAIN  44  41  89 E14       29.92S FOG
$$

IAZ064-065-067-068-078-301500-
   EAST CENTRAL IOWA

CITY           SKY/WX    TMP DP  RH WIND       PRES   REMARKS
DAVENPORT      CLOUDY    47  44  90 E22G30    29.90F FOG
IOWA CITY      CLOUDY    47  44  90 E17G25    29.88F FOG
MT. PLEASANT * CLOUDY    52  52 100 E14G21    29.83R FOG
MUSCATINE *    PTSUNNY   48  46  93 E17G29    29.86F FOG
QUAD CITIES    LGT RAIN  48  44  86 E20G26    29.89F FOG
$$

IAZ062-063-075>077-085>089-095>099-301500-
   SOUTHEAST IOWA

CITY           SKY/WX    TMP DP  RH WIND       PRES   REMARKS
BURLINGTON     CLOUDY    50  32  50 E10       29.82F HAZE
FAIRFIELD *    LGT RAIN  46  46 100 E20G25    29.81S
FORT MADISON * CLOUDY    48  48 100 E15G21    29.82R FOG
KEOKUK *       CLOUDY    52  50  93 E17G24    29.79S FOG
OSKALOOSA *    LGT RAIN  46  45  93 E14       29.82S
OTTUMWA        LGT RAIN  47  46  97 E16G23    29.80F FOG
WASHINGTON *   CLOUDY    46  46 100 E17       29.85R FOG
$$

ABBREVIATIONS USED IN REMARKS
   TC - TEMPERATURES IN CELSIUS
  WCI - WIND CHILL INDEX
   HX - HEAT INDEX
  VSB - VISIBILITY
$$





USA.gov is the U.S. government's official web portal to all federal, state and local government web resources and services.